TRA82K EHAM-LGIR

Flight info

Callsign TRA82K
Flight time N/A
Altitude 33000
Route EDUPO Z739 MISGO DCT DOJOH DCT DODEN DCT NEGIX DCT DINKU M867 XERUM DCT BAVAX DCT RADIZ/N0452F350 DCT NIPEL DCT ABISO DCT NEMEK DCT VRANA DCT PETAK DCT PINDO UL607 GIVIS T514 XAVIS
Aircraft A21N/M-SDE2E3FGHIRWXY/LB1

Departure

Time 2026-05-06 14:26
Airport Amsterdam Airport Schiphol (EHAM)

Arrival

Time N/A
Airport Heraklion International Nikos Kazantzakis Airport (LGIR)
Time Latitude Longitude Altitude Speed Heading
2026-05-06 13:56 52.30805 4.76632 4 ft 0 kts 345°
2026-05-06 14:03 52.30791 4.76630 4 ft 4 kts 30°
2026-05-06 14:03 52.30772 4.76621 4 ft 4 kts 329°
2026-05-06 14:04 52.30753 4.76645 4 ft 4 kts 319°
2026-05-06 14:04 52.30732 4.76673 4 ft 4 kts 327°
2026-05-06 14:04 52.30709 4.76696 4 ft 4 kts 328°
2026-05-06 14:04 52.30687 4.76719 4 ft 4 kts 328°
2026-05-06 14:05 52.30666 4.76741 4 ft 2 kts 328°
2026-05-06 14:05 52.30665 4.76742 4 ft 0 kts 328°
2026-05-06 14:12 52.30671 4.76736 4 ft 2 kts 329°
2026-05-06 14:12 52.30697 4.76720 4 ft 5 kts 344°
2026-05-06 14:12 52.30698 4.76720 4 ft 0 kts 344°
2026-05-06 14:13 52.30698 4.76719 4 ft 0 kts 344°
2026-05-06 14:13 52.30706 4.76724 4 ft 2 kts 31°
2026-05-06 14:13 52.30715 4.76761 4 ft 5 kts 82°
2026-05-06 14:14 52.30697 4.76829 4 ft 9 kts 140°
2026-05-06 14:14 52.30635 4.76864 4 ft 11 kts 167°
2026-05-06 14:14 52.30564 4.76911 4 ft 11 kts 150°
2026-05-06 14:14 52.30501 4.76967 4 ft 10 kts 169°
2026-05-06 14:15 52.30442 4.76909 4 ft 12 kts 237°
2026-05-06 14:15 52.30393 4.76788 4 ft 14 kts 236°
2026-05-06 14:15 52.30338 4.76645 4 ft 16 kts 240°
2026-05-06 14:15 52.30279 4.76489 4 ft 17 kts 240°
2026-05-06 14:16 52.30215 4.76316 4 ft 19 kts 236°
2026-05-06 14:16 52.30145 4.76125 4 ft 20 kts 238°
2026-05-06 14:16 52.30063 4.75927 4 ft 21 kts 238°
2026-05-06 14:16 52.29988 4.75730 4 ft 23 kts 242°
2026-05-06 14:17 52.29902 4.75502 4 ft 24 kts 239°
2026-05-06 14:17 52.29837 4.75297 4 ft 14 kts 263°
2026-05-06 14:17 52.29869 4.75164 5 ft 15 kts 310°
2026-05-06 14:17 52.29936 4.75016 4 ft 17 kts 310°
2026-05-06 14:18 52.29966 4.74818 6 ft 20 kts 268°
2026-05-06 14:18 52.30021 4.74607 14 ft 23 kts 310°
2026-05-06 14:18 52.30139 4.74406 14 ft 23 kts 316°
2026-05-06 14:18 52.30152 4.74384 14 ft 0 kts 317°
2026-05-06 14:19 52.30157 4.74375 14 ft 3 kts 315°
2026-05-06 14:19 52.30170 4.74354 14 ft 0 kts 315°
2026-05-06 14:20 52.30172 4.74350 14 ft 2 kts 315°
2026-05-06 14:20 52.30188 4.74325 14 ft 5 kts 315°
2026-05-06 14:20 52.30214 4.74283 11 ft 5 kts 315°
2026-05-06 14:21 52.30239 4.74232 7 ft 6 kts 305°
2026-05-06 14:21 52.30246 4.74214 6 ft 0 kts 304°
2026-05-06 14:22 52.30247 4.74212 6 ft 1 kts 304°
2026-05-06 14:22 52.30264 4.74186 4 ft 7 kts 316°
2026-05-06 14:22 52.30317 4.74098 5 ft 13 kts 317°
2026-05-06 14:22 52.30392 4.74010 4 ft 15 kts 301°
2026-05-06 14:23 52.30409 4.73833 3 ft 14 kts 274°
2026-05-06 14:23 52.30413 4.73787 2 ft 5 kts 287°
2026-05-06 14:23 52.30448 4.73759 3 ft 7 kts 358°
2026-05-06 14:23 52.30453 4.73760 3 ft 0 kts
2026-05-06 14:24 52.30454 4.73760 3 ft 0 kts
2026-05-06 14:25 52.30461 4.73761 3 ft 3 kts
2026-05-06 14:25 52.30594 4.73776 2 ft 53 kts
2026-05-06 14:25 52.30948 4.73807 4 ft 101 kts
2026-05-06 14:25 52.31867 4.73893 5 ft 161 kts
2026-05-06 14:26 52.32562 4.73959 153 ft 175 kts
2026-05-06 14:26 52.33733 4.74209 635 ft 187 kts 16°
2026-05-06 14:26 52.34517 4.74703 1005 ft 175 kts 30°
2026-05-06 14:26 52.35283 4.75663 1600 ft 180 kts 38°
2026-05-06 14:27 52.36169 4.76308 2186 ft 180 kts 14°
2026-05-06 14:27 52.37343 4.76629 2949 ft 183 kts 20°
2026-05-06 14:27 52.38514 4.77452 3731 ft 185 kts 37°
2026-05-06 14:27 52.39170 4.78729 4396 ft 184 kts 58°
2026-05-06 14:28 52.39927 4.80361 5197 ft 187 kts 49°
2026-05-06 14:28 52.40822 4.81951 5977 ft 193 kts 47°
2026-05-06 14:28 52.41383 4.82916 6438 ft 198 kts 46°
2026-05-06 14:28 52.42385 4.84621 7000 ft 213 kts 46°
2026-05-06 14:29 52.43211 4.86663 7738 ft 219 kts 75°
2026-05-06 14:29 52.43167 4.89164 8496 ft 230 kts 101°
2026-05-06 14:29 52.42820 4.91863 8919 ft 253 kts 97°
2026-05-06 14:29 52.42638 4.94819 9458 ft 268 kts 92°
2026-05-06 14:30 52.42543 4.97934 9974 ft 284 kts 90°
2026-05-06 14:30 52.42413 5.01213 10644 ft 293 kts 102°
2026-05-06 14:30 52.41524 5.04172 11354 ft 299 kts 132°
2026-05-06 14:30 52.40004 5.05983 11971 ft 306 kts 158°
2026-05-06 14:31 52.37981 5.06885 12402 ft 322 kts 173°
2026-05-06 14:31 52.36510 5.07292 12803 ft 329 kts 169°
2026-05-06 14:31 52.34340 5.08509 13537 ft 336 kts 154°
2026-05-06 14:31 52.32364 5.10521 14210 ft 343 kts 142°
2026-05-06 14:32 52.30729 5.13358 14973 ft 346 kts 129°
2026-05-06 14:32 52.29375 5.16130 15585 ft 351 kts 129°
2026-05-06 14:32 52.27816 5.19235 16303 ft 354 kts 130°
2026-05-06 14:32 52.26223 5.22270 17059 ft 356 kts 131°
2026-05-06 14:33 52.24567 5.25338 17786 ft 359 kts 132°
2026-05-06 14:33 52.22971 5.28507 18428 ft 364 kts 126°
2026-05-06 14:33 52.21568 5.31856 19058 ft 366 kts 124°
2026-05-06 14:33 52.20140 5.35325 19670 ft 370 kts 125°
2026-05-06 14:34 52.18681 5.38781 20318 ft 371 kts 126°
2026-05-06 14:34 52.17188 5.42259 20869 ft 375 kts 127°
2026-05-06 14:34 52.15695 5.45695 21444 ft 376 kts 127°
2026-05-06 14:34 52.14156 5.49222 21992 ft 379 kts 127°
2026-05-06 14:35 52.12628 5.52729 22493 ft 381 kts 127°
2026-05-06 14:35 52.11081 5.56273 22978 ft 385 kts 127°
2026-05-06 14:35 52.09546 5.59781 23415 ft 388 kts 127°
2026-05-06 14:35 52.07959 5.63392 23677 ft 396 kts 127°
2026-05-06 14:36 52.06341 5.67034 23859 ft 406 kts 129°
2026-05-06 14:36 52.04493 5.70651 24041 ft 417 kts 133°
2026-05-06 14:36 52.02570 5.74235 24203 ft 428 kts 133°
2026-05-06 14:36 52.00572 5.77929 24361 ft 439 kts 133°
2026-05-06 14:37 51.98557 5.81669 24514 ft 448 kts 133°
2026-05-06 14:37 51.96474 5.85551 24662 ft 458 kts 132°
2026-05-06 14:37 51.94362 5.89492 24790 ft 467 kts 132°
2026-05-06 14:37 51.92232 5.93472 25015 ft 472 kts 132°
2026-05-06 14:38 51.90086 5.97479 25490 ft 470 kts 132°
2026-05-06 14:38 51.87930 6.01510 25986 ft 469 kts 132°
2026-05-06 14:38 51.85795 6.05502 26419 ft 468 kts 132°
2026-05-06 14:38 51.83683 6.09426 26934 ft 466 kts 133°
2026-05-06 14:39 51.81560 6.13371 27451 ft 464 kts 132°
2026-05-06 14:39 51.79454 6.17249 27970 ft 461 kts 132°
2026-05-06 14:39 51.77336 6.21147 28443 ft 459 kts 133°
2026-05-06 14:39 51.75239 6.25023 28943 ft 458 kts 132°
2026-05-06 14:40 51.73146 6.28885 29451 ft 455 kts 133°
2026-05-06 14:40 51.71074 6.32725 29977 ft 452 kts 132°
2026-05-06 14:40 51.69005 6.36522 30493 ft 447 kts 132°
2026-05-06 14:40 51.66956 6.40269 30926 ft 444 kts 132°
2026-05-06 14:41 51.64917 6.43999 31245 ft 445 kts 132°
2026-05-06 14:41 51.62865 6.47752 31539 ft 445 kts 133°
2026-05-06 14:41 51.60824 6.51495 31819 ft 446 kts 133°
2026-05-06 14:41 51.58780 6.55250 32112 ft 447 kts 133°
2026-05-06 14:42 51.56739 6.59006 32407 ft 446 kts 133°
2026-05-06 14:42 51.54707 6.62750 32702 ft 446 kts 133°
2026-05-06 14:42 51.52657 6.66529 33010 ft 446 kts 133°
2026-05-06 14:42 51.50681 6.70178 33296 ft 446 kts 133°
2026-05-06 14:43 51.48640 6.73952 33577 ft 446 kts 133°
2026-05-06 14:43 51.46615 6.77715 33819 ft 447 kts 133°
2026-05-06 14:43 51.44591 6.81497 34017 ft 447 kts 133°
2026-05-06 14:43 51.42569 6.85287 34207 ft 447 kts 133°
2026-05-06 14:44 51.40551 6.89075 34399 ft 447 kts 133°
2026-05-06 14:44 51.38528 6.92875 34593 ft 448 kts 133°
2026-05-06 14:44 51.36515 6.96668 34801 ft 448 kts 133°
2026-05-06 14:45 51.32517 7.04233 35214 ft 447 kts 133°
2026-05-06 14:45 51.30484 7.08088 35378 ft 447 kts 133°
2026-05-06 14:45 51.28482 7.11884 35538 ft 447 kts 133°
2026-05-06 14:45 51.26503 7.15640 35686 ft 448 kts 133°
2026-05-06 14:46 51.24478 7.19494 35810 ft 448 kts 133°
2026-05-06 14:46 51.22460 7.23293 35928 ft 448 kts 136°
2026-05-06 14:46 51.20188 7.26666 36037 ft 446 kts 141°
2026-05-06 14:46 51.17896 7.29935 36163 ft 446 kts 141°
2026-05-06 14:47 51.15608 7.33177 36295 ft 446 kts 141°
2026-05-06 14:47 51.13275 7.36453 36430 ft 446 kts 142°
2026-05-06 14:47 51.10945 7.39707 36573 ft 447 kts 142°
2026-05-06 14:47 51.08601 7.42971 36720 ft 446 kts 142°
2026-05-06 14:48 51.06265 7.46224 36846 ft 446 kts 142°
2026-05-06 14:48 51.01601 7.52687 36834 ft 445 kts 142°
2026-05-06 14:49 50.96939 7.59133 36790 ft 444 kts 142°
2026-05-06 14:49 50.92283 7.65554 36795 ft 443 kts 142°
2026-05-06 14:50 50.87636 7.71940 36781 ft 443 kts 142°
2026-05-06 14:50 50.82970 7.78345 36772 ft 443 kts 142°
2026-05-06 14:51 50.78299 7.84738 36773 ft 443 kts 142°
2026-05-06 14:51 50.73642 7.91097 36771 ft 443 kts 142°
2026-05-06 14:52 50.68966 7.97446 36751 ft 443 kts 143°
2026-05-06 14:52 50.64308 8.03757 36753 ft 443 kts 142°
2026-05-06 14:53 50.59701 8.10352 36766 ft 447 kts 135°
2026-05-06 14:53 50.55772 8.17996 36782 ft 450 kts 131°
2026-05-06 14:54 50.51873 8.25709 36766 ft 450 kts 132°
2026-05-06 14:54 50.47997 8.33318 36772 ft 450 kts 132°
2026-05-06 14:55 50.44039 8.41048 36752 ft 451 kts 133°
2026-05-06 14:55 50.40153 8.48620 36759 ft 451 kts 133°
2026-05-06 14:56 50.36103 8.56064 36754 ft 448 kts 136°
2026-05-06 14:56 50.31859 8.63174 36750 ft 447 kts 137°
2026-05-06 14:57 50.27631 8.70234 36750 ft 445 kts 137°
2026-05-06 14:57 50.23372 8.77328 36754 ft 451 kts 137°
2026-05-06 14:58 50.19041 8.84535 36751 ft 456 kts 137°
2026-05-06 14:58 50.14693 8.91747 36770 ft 458 kts 137°
2026-05-06 14:59 50.10319 8.98974 36753 ft 459 kts 137°
2026-05-06 14:59 50.05960 9.06159 36759 ft 459 kts 137°
2026-05-06 15:00 50.01540 9.13443 36747 ft 460 kts 137°
2026-05-06 15:00 49.99338 9.17055 36152 ft 459 kts 134°
2026-05-06 15:00 49.97162 9.20621 36626 ft 454 kts 134°
2026-05-06 15:00 49.94979 9.24186 36874 ft 455 kts 134°
2026-05-06 15:01 49.92790 9.27763 36977 ft 459 kts 134°
2026-05-06 15:01 49.88344 9.35019 37030 ft 470 kts 134°
2026-05-06 15:02 49.83815 9.42382 37026 ft 481 kts 134°
2026-05-06 15:02 49.79131 9.49970 37018 ft 494 kts 134°
2026-05-06 15:03 49.74319 9.57745 37017 ft 506 kts 134°
2026-05-06 15:03 49.69373 9.65707 37018 ft 518 kts 134°
2026-05-06 15:04 49.64344 9.73789 37011 ft 525 kts 134°
2026-05-06 15:04 49.59283 9.81882 37009 ft 525 kts 134°
2026-05-06 15:05 49.54205 9.89977 37006 ft 525 kts 134°
2026-05-06 15:05 49.49145 9.98030 37004 ft 525 kts 134°
2026-05-06 15:06 49.44057 10.06091 37003 ft 525 kts 134°
2026-05-06 15:06 49.38963 10.14136 37001 ft 525 kts 134°
2026-05-06 15:07 49.33864 10.22170 37002 ft 525 kts 134°
2026-05-06 15:07 49.28800 10.30137 37004 ft 525 kts 134°
2026-05-06 15:08 49.23586 10.37986 36996 ft 525 kts 141°
2026-05-06 15:08 49.17456 10.44008 37006 ft 524 kts 150°
2026-05-06 15:09 49.11163 10.49650 37005 ft 524 kts 149°
2026-05-06 15:09 49.04885 10.55325 37003 ft 525 kts 149°
2026-05-06 15:10 48.98609 10.61017 37006 ft 524 kts 149°
2026-05-06 15:10 48.93384 10.65726 37006 ft 524 kts 149°
2026-05-06 15:11 48.87111 10.71377 37003 ft 525 kts 149°
2026-05-06 15:11 48.80969 10.77362 36999 ft 525 kts 140°
2026-05-06 15:12 48.75926 10.85324 37010 ft 524 kts 131°
2026-05-06 15:12 48.71088 10.93537 37007 ft 525 kts 132°
2026-05-06 15:13 48.66191 11.01739 37008 ft 525 kts 132°
2026-05-06 15:13 48.61300 11.09911 37003 ft 525 kts 132°
2026-05-06 15:14 48.56381 11.18086 37004 ft 525 kts 133°
2026-05-06 15:14 48.51455 11.26224 37001 ft 526 kts 133°
2026-05-06 15:15 48.46511 11.34379 37002 ft 526 kts 133°
2026-05-06 15:15 48.41571 11.42507 37005 ft 526 kts 133°
2026-05-06 15:16 48.36635 11.50610 37032 ft 526 kts 133°
2026-05-06 15:16 48.34172 11.54639 37013 ft 511 kts 133°
2026-05-06 15:16 48.31821 11.58486 36988 ft 488 kts 133°
2026-05-06 15:16 48.29575 11.62156 36967 ft 468 kts 133°
2026-05-06 15:17 48.27416 11.65677 36953 ft 447 kts 133°
2026-05-06 15:17 48.25291 11.68903 36953 ft 425 kts 137°
2026-05-06 15:17 48.23177 11.71851 36952 ft 405 kts 138°
2026-05-06 15:17 48.21157 11.74623 36711 ft 389 kts 138°
2026-05-06 15:18 48.19073 11.77471 34628 ft 424 kts 138°
2026-05-06 15:18 48.16890 11.80440 34084 ft 417 kts 138°
2026-05-06 15:18 48.14787 11.83287 33862 ft 402 kts 138°
2026-05-06 15:18 48.12740 11.86047 33442 ft 395 kts 138°
2026-05-06 15:19 48.11111 11.88233 32900 ft 394 kts 139°